Temperature
27 28 28 29 29 29 29 29 29 30 30 29 29 29 29 27 25 25 24 22 21 21 20 19 18 18 17 17 17 18 17 18 17 17 17 17 17 17 17 17 17 17 16 16
27 27 29 30 29 28 28 28 29 30 30 29 29 29 29 27 26 25 24 23 22 21 20 18 18 18 18 17 17 17 17 18 17 17 17 17 17 17 17 16 17 16 16 16
27 29 29 28 28 28 29 29 29 29 29 29 29 29 28 27 26 24 24 23 22 21 20 19 18 18 18 17 17 17 17 17 17 17 17 17 17 17 17 16 16 16 16 16
28 29 28 28 28 28 28 30 29 29 29 29 29 28 29 28 27 26 25 24 23 22 20 19 18 18 18 18 17 17 17 17 17 17 17 17 17 17 17 17 16 16 16 15
28 28 28 28 29 29 29 29 29 29 29 29 29 28 29 28 28 27 26 24 23 22 21 20 19 18 18 18 17 17 17 17 17 17 17 17 17 17 17 16 16 16 16 16
29 29 29 29 29 29 29 28 28 28 29 28 28 28 28 29 28 27 27 25 23 22 21 20 19 18 18 17 17 17 17 17 17 17 17 17 17 17 17 17 16 16 16 15
27 28 29 29 29 29 28 28 28 27 28 28 28 28 28 28 28 27 27 25 23 22 21 20 19 18 18 17 17 17 17 17 17 17 17 17 17 17 17 17 16 16 16 16
27 28 29 29 29 29 29 29 27 27 27 28 28 28 29 28 27 26 26 25 24 23 22 21 20 19 18 18 17 17 17 17 17 17 17 17 17 17 17 17 16 16 16 16
28 28 29 29 29 29 28 29 30 28 28 28 28 29 29 28 27 27 26 25 24 23 22 21 20 19 18 18 18 17 17 17 17 17 17 17 17 17 17 17 17 16 16 16
29 28 29 29 29 29 29 30 29 28 27 27 28 28 28 28 27 27 26 25 24 23 22 21 20 20 19 18 18 17 17 17 17 17 17 17 17 17 17 17 16 16 16 16
28 27 28 28 28 29 28 28 28 29 28 27 27 28 29 28 28 27 26 25 24 23 22 21 20 20 19 18 18 17 17 17 17 17 17 17 17 17 17 17 17 16 16 16
27 28 28 28 29 28 29 29 28 27 27 27 28 28 29 28 28 27 26 25 24 23 22 21 20 19 19 18 18 18 17 17 17 17 17 17 17 17 17 17 17 17 16 16
26 26 26 27 27 27 28 28 28 28 28 28 28 28 28 27 27 26 25 24 23 22 22 21 20 19 19 19 18 18 17 17 17 17 17 17 17 17 17 17 17 17 16 16
25 26 26 27 28 28 27 27 28 28 28 28 28 28 28 27 27 25 24 23 22 21 21 20 19 19 18 18 18 17 17 17 17 17 17 17 17 17 17 17 17 16 16 16
25 25 26 27 27 27 27 27 27 27 28 28 28 29 29 27 26 24 23 22 21 21 20 19 19 18 18 18 17 17 17 17 17 17 17 17 17 17 17 16 16 16 16 16
24 24 25 25 26 27 26 27 27 27 27 28 28 28 28 26 24 23 22 21 21 20 19 19 18 18 17 17 17 17 17 17 16 16 16 16 16 16 16 16 16 16 16 16
24 23 23 25 26 25 25 26 27 27 27 27 27 28 27 25 24 22 21 21 20 19 18 18 17 17 17 17 17 17 16 16 16 16 16 16 16 16 16 16 15 16 16 15
22 22 23 24 24 23 26 27 27 26 27 27 27 27 25 24 21 19 19 19 18 18 17 17 16 16 16 16 16 16 16 16 16 16 16 15 15 15 15 15 15 15 15 15
22 21 22 23 23 24 25 25 25 25 25 26 26 25 23 21 19 18 17 17 17 16 16 15 15 16 15 15 15 15 15 15 15 15 15 15 15 15 15 15 15 14 14 14
20 20 21 21 21 22 24 24 23 24 24 25 25 23 22 21 22 19 15 15 15 15 15 15 15 15 15 14 15 15 15 14 14 14 14 14 14 14 14 14 14 14 13 13
20 19 20 21 21 22 23 22 22 22 23 22 22 21 21 22 21 16 14 14 14 14 14 14 14 14 14 14 14 14 14 13 13 14 13 13 13 13 13 13 13 13 12 12
20 20 20 20 20 21 21 21 21 21 20 20 20 20 19 18 15 14 13 13 13 13 13 13 13 13 13 13 13 13 13 13 13 13 13 13 13 12 12 12 12 12 11 11
19 20 20 20 20 20 19 19 18 18 18 18 19 18 17 15 14 13 12 12 12 12 12 12 12 12 12 12 12 12 12 12 12 12 12 12 12 12 11 11 11 11 11 11
19 18 18 18 19 19 18 18 17 17 17 17 17 16 15 14 13 12 12 11 11 11 11 11 11 11 11 11 11 12 11 11 12 11 11 11 11 11 11 10 10 10 10 10
18 18 17 17 17 17 17 16 16 16 16 15 15 14 14 13 12 11 11 11 11 11 11 11 11 11 11 11 11 11 11 11 11 11 10 10 10 10 10 10 10 9 9 9
17 17 16 16 16 16 15 14 14 14 14 14 13 13 12 12 11 11 11 10 10 11 11 11 11 11 10 10 10 11 11 11 11 10 10 10 10 9 9 9 9 8 8 8
Wind_Speed
12 13 15 13 10 8 8 9 9 6 5 7 7 6 3 2 4 4 6 7 7 8 8 10 11 12 13 14 13 13 14 13 11 9 9 9 8 7 7 6 7 7 6 6
12 17 17 11 9 9 10 11 10 6 4 6 8 7 2 2 4 4 6 7 7 8 9 11 12 13 14 14 14 13 14 13 13 10 9 7 7 7 6 6 7 7 7 7
19 9 9 11 12 12 12 12 9 9 8 6 7 7 2 3 4 4 6 7 8 9 11 11 12 13 13 14 14 13 14 13 13 12 9 8 7 6 6 7 7 7 7 7
16 14 9 12 13 13 13 8 8 9 10 7 5 8 1 2 4 5 6 7 8 10 11 11 12 12 12 12 12 13 13 13 13 12 11 12 10 9 9 8 7 8 8 7
12 11 13 15 14 12 11 5 7 9 10 11 7 8 3 2 2 3 6 7 8 10 11 11 12 12 12 12 12 12 13 13 13 13 14 13 11 9 8 8 9 8 8 8
14 8 9 10 9 9 7 6 8 9 11 11 6 7 5 1 2 2 4 6 8 9 10 11 11 11 11 11 12 12 13 13 14 14 14 14 13 11 11 10 10 9 7 8
16 16 14 12 11 10 10 10 9 10 9 7 1 6 3 2 1 2 4 6 8 10 10 11 11 12 12 12 12 13 14 13 13 13 13 13 13 13 13 12 10 9 8 8
14 12 14 14 17 13 13 14 11 9 8 6 3 5 1 1 1 3 4 6 8 9 10 11 12 12 12 13 13 13 14 13 13 14 13 12 12 11 10 11 10 10 8 8
9 8 7 9 11 13 11 13 12 11 12 10 6 4 3 4 4 5 6 7 8 8 9 10 11 12 12 13 13 13 14 13 13 14 13 12 12 12 11 11 10 9 8 7
9 8 8 7 8 9 10 8 7 10 9 9 7 6 3 5 5 6 6 7 8 8 9 9 10 11 11 11 12 12 13 13 12 13 13 11 12 12 11 10 11 9 9 8
12 10 9 9 11 12 10 10 10 9 9 9 8 3 2 4 5 6 7 7 8 9 9 9 9 10 10 11 12 12 12 12 12 12 12 12 12 12 12 11 11 10 9 9
9 8 11 11 6 5 11 12 12 11 10 10 10 5 5 4 5 5 6 7 8 8 9 9 9 10 10 11 11 11 11 12 11 11 11 11 11 11 11 11 10 10 10 10
4 6 9 10 10 9 10 12 13 12 11 12 12 6 7 6 6 6 7 8 8 9 9 9 9 9 9 9 10 11 11 11 11 11 11 11 10 10 10 10 10 9 9 9
3 7 11 13 6 6 10 12 12 13 13 14 14 11 6 6 6 7 7 8 8 9 9 9 9 8 8 8 8 9 10 11 11 11 11 10 10 10 9 9 8 9 9 9
4 9 11 12 10 9 12 13 13 16 16 16 13 11 7 5 6 7 8 8 9 9 9 10 9 8 7 8 7 8 8 9 10 10 10 10 9 9 8 8 7 7 7 7
3 8 10 13 13 13 15 16 16 17 17 17 16 14 6 4 6 7 9 9 9 9 9 9 9 8 7 7 7 8 8 8 9 9 8 8 8 7 7 7 6 6 5 5
6 7 10 14 12 13 18 18 19 18 17 17 18 13 6 7 7 7 9 9 9 8 8 8 8 8 7 7 7 7 8 9 9 8 7 8 8 7 6 6 6 5 5 4
8 9 8 12 12 17 12 7 11 15 17 16 13 8 7 6 7 6 6 8 9 9 9 9 8 9 8 9 9 9 10 10 9 9 8 8 8 8 7 6 5 4 4 4
8 8 9 10 15 15 12 7 7 11 14 12 12 9 7 10 10 7 6 8 9 10 10 9 10 10 10 10 11 12 12 11 10 10 9 8 8 8 8 7 6 6 6 6
6 8 9 10 13 13 7 2 4 8 12 6 6 8 11 13 8 6 9 10 11 11 10 10 11 12 12 11 12 13 13 12 11 10 10 9 9 9 9 9 8 7 8 8
6 8 12 14 14 10 3 3 3 9 5 4 4 7 12 10 4 13 14 12 12 12 12 13 13 13 12 12 13 14 13 13 12 12 12 11 11 11 11 10 9 9 9 10
7 7 9 9 12 9 3 3 5 6 8 6 4 5 7 10 16 17 16 15 14 14 14 14 14 13 12 12 14 15 14 12 12 13 13 12 12 11 11 11 10 9 9 10
6 6 5 6 6 4 5 7 8 9 9 7 3 5 12 16 17 18 17 15 15 15 14 14 15 15 13 13 14 15 13 12 13 14 13 13 12 11 10 10 9 8 7 7
6 5 7 8 9 9 9 9 8 8 8 5 4 10 14 18 19 18 16 16 16 16 15 15 16 16 15 14 14 13 12 12 13 13 12 11 11 11 10 8 8 8 7 7
6 5 7 10 9 9 7 6 5 4 0 5 9 12 16 20 20 18 16 16 16 15 14 15 15 16 16 14 14 13 12 12 13 12 11 11 11 11 11 11 10 10 10 9
5 6 6 6 6 6 5 5 3 3 6 10 13 15 17 19 20 19 17 16 15 15 14 15 16 16 15 14 13 12 11 11 11 10 9 9 8 8 9 10 11 15 12 14
Wind_Direction
202 223 228 230 239 271 279 280 286 302 331 309 305 309 318 197 209 204 195 191 191 193 181 175 173 174 173 173 178 182 179 174 172 171 173 173 174 175 173 170 164 173 173 171
208 229 235 241 244 251 258 267 275 285 325 303 303 299 302 194 213 218 204 196 194 185 175 173 176 179 181 180 183 186 182 178 180 179 176 177 169 173 171 169 165 177 176 177
220 228 224 228 230 238 248 259 280 301 306 260 290 278 214 160 191 202 204 197 192 185 181 179 182 184 184 185 186 188 187 183 183 179 172 165 161 169 170 175 175 178 180 186
231 234 223 228 232 236 246 254 274 286 292 301 305 305 287 170 200 199 199 199 192 186 183 182 184 187 187 186 186 186 185 184 182 181 181 180 182 184 183 182 174 175 182 187
219 223 224 231 235 236 250 268 270 276 282 285 273 290 313 185 243 198 188 193 191 187 185 183 185 188 188 187 185 186 183 185 184 188 189 188 191 188 179 181 172 181 181 192
236 219 233 237 234 233 232 239 248 253 263 268 280 288 298 330 317 203 176 180 184 184 185 183 184 183 185 188 187 185 183 185 187 190 191 193 191 188 181 183 180 187 185 193
229 232 229 232 232 216 221 239 247 246 245 260 229 272 297 354 285 224 189 176 175 180 184 183 184 183 183 186 189 187 184 187 187 190 191 194 192 189 188 190 190 195 192 194
216 223 216 218 226 230 225 237 248 267 274 281 214 263 324 91 188 184 179 169 168 173 179 182 184 185 186 186 187 185 185 189 190 192 192 194 193 194 195 197 196 199 204 200
219 217 186 208 219 227 224 233 249 261 269 277 270 260 227 184 182 173 168 167 169 169 173 178 181 184 186 187 185 185 184 187 190 193 192 195 196 202 201 195 202 206 207 204
236 233 198 187 200 216 242 236 229 246 258 268 263 259 247 182 181 172 170 171 168 168 171 171 175 179 182 183 183 183 183 186 189 193 193 194 198 202 202 200 203 209 209 209
232 236 213 197 214 208 200 217 233 247 260 272 279 286 92 169 182 181 173 169 169 170 168 167 169 175 180 180 181 184 184 183 188 192 192 193 195 198 200 202 207 209 213 209
217 237 238 222 214 253 232 230 226 240 246 251 273 282 116 150 167 174 166 162 165 166 162 163 164 167 175 179 180 182 183 184 188 188 188 192 194 196 201 204 208 209 213 214
196 226 231 220 210 208 227 230 234 242 255 253 258 257 135 152 162 164 162 160 159 160 159 158 160 163 168 175 179 180 182 184 185 184 186 188 191 194 201 205 204 206 210 214
253 241 250 256 263 217 220 223 226 233 243 250 252 260 205 188 179 168 161 160 159 156 156 155 153 156 159 163 169 175 180 181 181 180 182 184 189 192 196 199 202 206 210 213
265 248 251 264 272 262 253 244 234 236 250 260 263 261 249 204 182 169 164 161 158 155 155 153 151 151 155 157 161 166 171 173 174 176 177 178 183 185 186 192 197 199 205 213
266 267 262 257 255 256 255 250 246 245 249 255 261 263 262 168 165 164 166 164 161 156 154 150 146 146 149 150 152 154 156 158 160 164 166 166 166 169 170 172 174 177 185 199
252 254 259 256 254 259 252 247 247 248 247 249 253 257 212 184 173 167 165 164 157 150 143 140 141 140 141 141 142 140 138 138 138 140 148 150 149 150 154 159 164 167 170 179
250 255 256 259 255 250 254 263 260 257 255 253 255 245 208 182 143 131 147 153 147 142 136 131 129 127 127 125 124 124 122 121 120 118 121 131 133 134 136 136 135 135 133 130
235 241 250 253 250 253 253 252 257 259 259 254 244 221 181 142 132 120 118 127 129 125 122 120 119 117 114 114 115 113 110 108 106 104 102 105 110 111 110 108 105 100 98 93
211 225 241 244 251 253 257 283 282 264 254 251 235 203 177 172 188 154 130 119 114 111 109 109 109 107 106 108 111 108 104 101 97 95 92 91 93 98 97 93 90 89 89 87
220 225 235 244 247 253 304 333 271 243 267 337 255 206 191 200 158 129 127 117 113 109 108 106 103 100 101 105 105 100 96 93 93 93 90 87 87 89 91 91 91 94 94 92
254 247 238 242 244 242 18 310 270 307 331 316 272 202 167 126 118 124 122 117 114 111 108 106 101 96 95 99 101 97 93 94 94 91 87 84 83 84 88 90 91 93 98 99
245 264 276 259 266 320 321 297 297 295 290 290 249 157 139 131 129 125 122 118 114 110 108 105 103 98 93 92 96 96 96 98 96 92 89 87 85 83 85 88 91 91 89 90
245 254 260 267 269 286 295 295 293 283 274 264 171 145 139 132 129 126 121 118 114 111 109 108 103 98 93 92 92 95 99 100 98 96 95 94 91 86 77 72 72 71 69 75
280 268 266 268 280 290 286 303 310 314 195 135 132 133 134 130 128 125 120 117 113 109 106 105 102 100 97 95 93 92 94 97 97 96 96 94 90 87 80 70 55 64 55 47
261 269 273 279 294 293 308 342 14 82 120 126 126 124 124 126 125 121 117 114 112 110 108 105 102 99 97 94 90 87 89 93 96 98 98 98 99 99 101 99 85 60 68 68
Height
1495 1494 1490 1486 1484 1486 1487 1487 1485 1480 1476 1477 1476 1475 1475 1479 1481 1483 1485 1488 1490 1492 1495 1498 1500 1503 1506 1509 1512 1517 1521 1525 1529 1532 1536 1540 1543 1546 1549 1551 1552 1554 1555 1556
1492 1490 1483 1482 1485 1487 1487 1487 1482 1476 1475 1477 1475 1473 1472 1476 1479 1481 1483 1486 1488 1491 1494 1496 1498 1501 1503 1507 1510 1514 1518 1522 1526 1530 1534 1538 1542 1545 1547 1549 1550 1552 1554 1555
1485 1480 1479 1483 1485 1487 1484 1484 1480 1480 1475 1472 1475 1471 1470 1473 1478 1480 1482 1484 1486 1488 1491 1494 1496 1499 1502 1505 1508 1511 1515 1519 1524 1528 1532 1535 1539 1543 1545 1548 1549 1551 1552 1554
1479 1476 1480 1483 1482 1482 1483 1475 1478 1479 1479 1474 1476 1480 1469 1469 1473 1476 1479 1481 1484 1487 1489 1492 1494 1497 1500 1503 1506 1509 1513 1517 1521 1525 1529 1533 1536 1540 1543 1546 1548 1549 1551 1553
1476 1474 1478 1481 1477 1477 1476 1474 1477 1477 1477 1477 1472 1477 1469 1466 1469 1470 1474 1478 1481 1484 1487 1490 1493 1495 1498 1501 1504 1507 1510 1514 1518 1522 1526 1530 1534 1538 1541 1544 1546 1548 1550 1551
1469 1472 1473 1472 1471 1473 1474 1477 1476 1475 1473 1483 1474 1479 1474 1463 1466 1467 1471 1476 1479 1482 1485 1488 1491 1494 1496 1499 1502 1505 1508 1511 1515 1519 1523 1527 1531 1535 1538 1541 1544 1546 1548 1550
1472 1469 1468 1470 1472 1472 1474 1481 1486 1487 1484 1480 1469 1475 1470 1462 1464 1466 1469 1473 1477 1480 1483 1486 1489 1492 1494 1497 1499 1502 1505 1509 1513 1516 1520 1524 1528 1532 1535 1539 1542 1545 1547 1549
1472 1470 1462 1463 1467 1468 1469 1472 1486 1494 1486 1473 1469 1473 1463 1461 1464 1467 1469 1472 1475 1478 1481 1484 1486 1489 1492 1494 1497 1500 1503 1506 1510 1514 1517 1522 1526 1529 1533 1536 1540 1542 1545 1547
1462 1465 1457 1459 1460 1462 1467 1467 1460 1471 1473 1478 1468 1463 1459 1460 1463 1465 1467 1470 1473 1476 1479 1482 1485 1487 1490 1492 1495 1498 1501 1504 1508 1511 1515 1519 1523 1526 1530 1533 1537 1540 1543 1545
1455 1464 1455 1458 1460 1461 1458 1457 1465 1471 1484 1485 1472 1466 1462 1460 1460 1462 1466 1469 1472 1475 1478 1480 1483 1486 1488 1490 1493 1496 1499 1502 1505 1509 1513 1517 1520 1524 1527 1531 1534 1537 1540 1542
1454 1462 1457 1457 1459 1457 1463 1464 1462 1462 1464 1477 1478 1467 1449 1454 1457 1460 1464 1468 1471 1474 1476 1479 1482 1484 1487 1489 1492 1494 1497 1500 1503 1507 1510 1514 1518 1521 1525 1528 1531 1534 1537 1539
1455 1456 1456 1452 1449 1452 1452 1454 1458 1468 1469 1466 1468 1463 1448 1452 1456 1459 1462 1467 1470 1473 1475 1478 1480 1483 1485 1488 1490 1493 1495 1498 1501 1504 1508 1511 1515 1518 1522 1525 1528 1531 1534 1536
1456 1460 1465 1460 1458 1455 1453 1451 1451 1454 1458 1461 1465 1459 1449 1453 1456 1460 1463 1466 1469 1472 1474 1477 1480 1482 1484 1486 1489 1491 1494 1496 1499 1502 1505 1508 1512 1515 1518 1522 1525 1527 1530 1533
1459 1457 1458 1458 1450 1446 1451 1451 1451 1454 1456 1456 1454 1450 1449 1451 1455 1459 1463 1466 1469 1471 1473 1476 1478 1481 1483 1485 1487 1490 1493 1495 1498 1500 1503 1506 1509 1513 1516 1519 1521 1524 1527 1529
1458 1456 1452 1448 1445 1446 1448 1448 1449 1452 1449 1450 1445 1443 1443 1448 1453 1459 1463 1466 1468 1471 1473 1475 1477 1480 1482 1484 1486 1489 1491 1494 1497 1499 1501 1504 1507 1510 1513 1516 1518 1521 1523 1525
1458 1458 1455 1454 1448 1447 1448 1446 1446 1446 1445 1445 1444 1444 1441 1448 1454 1458 1462 1465 1467 1470 1472 1474 1477 1479 1481 1483 1485 1488 1490 1492 1495 1497 1500 1502 1505 1508 1511 1513 1515 1517 1520 1522
1456 1460 1460 1455 1447 1449 1452 1442 1441 1441 1439 1440 1442 1440 1442 1449 1453 1457 1461 1463 1466 1469 1471 1474 1476 1478 1480 1482 1484 1487 1489 1491 1494 1496 1498 1501 1503 1506 1509 1511 1513 1515 1517 1519
1461 1461 1459 1454 1455 1464 1441 1435 1435 1437 1436 1435 1436 1439 1444 1449 1456 1460 1462 1463 1466 1469 1471 1473 1476 1478 1480 1482 1484 1487 1489 1491 1493 1495 1497 1499 1502 1505 1508 1510 1512 1513 1515 1516
1459 1461 1459 1456 1455 1448 1439 1436 1438 1440 1437 1434 1436 1440 1446 1452 1457 1461 1463 1465 1467 1469 1471 1474 1476 1478 1480 1483 1485 1487 1490 1492 1494 1496 1499 1500 1502 1504 1507 1509 1510 1512 1513 1515
1458 1460 1460 1457 1460 1455 1440 1437 1439 1441 1441 1435 1437 1440 1446 1450 1451 1459 1464 1466 1468 1470 1472 1474 1477 1479 1481 1484 1487 1489 1491 1493 1495 1498 1500 1502 1503 1505 1507 1508 1510 1511 1512 1514
1458 1459 1458 1455 1455 1444 1439 1441 1442 1447 1441 1440 1440 1442 1445 1446 1448 1458 1463 1466 1469 1472 1474 1476 1478 1481 1484 1487 1489 1490 1493 1495 1497 1499 1501 1503 1505 1506 1508 1509 1511 1512 1513 1514
1455 1454 1454 1452 1454 1448 1442 1442 1443 1443 1443 1442 1442 1443 1445 1449 1453 1458 1463 1467 1470 1474 1477 1479 1481 1483 1487 1489 1491 1493 1495 1498 1500 1501 1503 1505 1507 1508 1510 1511 1513 1514 1514 1515
1453 1451 1449 1449 1446 1444 1446 1446 1446 1445 1444 1443 1443 1444 1447 1451 1456 1461 1465 1469 1473 1476 1479 1482 1484 1487 1490 1493 1495 1496 1498 1501 1503 1504 1506 1507 1509 1510 1512 1513 1515 1516 1516 1517
1450 1452 1451 1449 1444 1445 1445 1443 1443 1442 1442 1442 1443 1446 1449 1453 1459 1464 1468 1472 1476 1480 1483 1486 1488 1490 1493 1497 1499 1500 1502 1504 1506 1507 1509 1510 1512 1513 1514 1515 1517 1517 1518 1519
1450 1451 1449 1448 1446 1445 1443 1443 1442 1441 1441 1442 1444 1447 1451 1455 1461 1466 1471 1475 1480 1483 1488 1490 1492 1495 1498 1501 1503 1505 1506 1508 1509 1510 1512 1514 1515 1515 1516 1517 1517 1518 1519 1519
1450 1450 1450 1448 1446 1446 1445 1443 1442 1442 1442 1443 1445 1449 1454 1459 1464 1469 1474 1480 1484 1487 1492 1495 1497 1500 1502 1505 1507 1508 1510 1511 1513 1514 1516 1517 1518 1519 1519 1519 1519 1519 1520 1520